This is the latest recevied weather packets stored in our database for station/object N8XHB. If no packets are shown the sender has not sent any weather packets the latest 10 day(s).
| Time | Temp. | Humidity | Pressure | Rain* | Wind** | Luminosity | Snow |
|---|---|---|---|---|---|---|---|
| 1777490396 | 8.33° C | 91% | 1012.2 hPa | 0 mm | - | 113 W/m² | - |
| 1777490093 | 8.89° C | 91% | 1012.1 hPa | 0 mm | - | 110 W/m² | - |
| 1777489790 | 8.89° C | 91% | 1012 hPa | 0 mm | - | 133 W/m² | - |
| 1777489488 | 8.89° C | 91% | 1012.2 hPa | 0 mm | - | 84 W/m² | - |
| 1777489184 | 8.89° C | 90% | 1012.1 hPa | 0 mm | - | 139 W/m² | - |
| 1777488881 | 8.89° C | 91% | 1012.1 hPa | 1.78 mm | - | 107 W/m² | - |
| 1777488578 | 8.89° C | 91% | 1012 hPa | 1.78 mm | - | 149 W/m² | - |
| 1777488276 | 8.89° C | 91% | 1011.9 hPa | 0 mm | - | 103 W/m² | - |
| 1777487974 | 8.89° C | 91% | 1012 hPa | 0 mm | - | 80 W/m² | - |
| 1777487672 | 8.89° C | 90% | 1011.8 hPa | 1.27 mm | - | 64 W/m² | - |
| 1777487368 | 9.44° C | 89% | 1012 hPa | 1.27 mm | - | 53 W/m² | - |
| 1777487066 | 9.44° C | 89% | 1011.7 hPa | 1.27 mm | - | 107 W/m² | - |
| 1777486761 | 10° C | 88% | 1011.8 hPa | 0 mm | - | 67 W/m² | - |
| 1777486460 | 10° C | 87% | 1011.6 hPa | 0 mm | - | 179 W/m² | - |
| 1777486157 | 10° C | 85% | 1011.8 hPa | 0 mm | - | 186 W/m² | - |
| 1777485855 | 10° C | 87% | 1011.9 hPa | 1.78 mm | - | 240 W/m² | - |
| 1777485555 | 10° C | 87% | 1012 hPa | 1.78 mm | - | 223 W/m² | - |
| 1777485251 | 10° C | 87% | 1011.7 hPa | 1.27 mm | - | 241 W/m² | - |
| 1777484947 | 10.56° C | 87% | 1011.9 hPa | 1.27 mm | - | 188 W/m² | - |
| 1777484645 | 10° C | 87% | 1011.9 hPa | 1.27 mm | - | 210 W/m² | - |
| 1777484341 | 10° C | 86% | 1011.9 hPa | 0 mm | - | 199 W/m² | - |
| 1777484037 | 10.56° C | 86% | 1011.8 hPa | 0 mm | - | 187 W/m² | - |
| 1777483734 | 10.56° C | 86% | 1012 hPa | 0 mm | - | 195 W/m² | - |
| 1777483429 | 10.56° C | 85% | 1012.1 hPa | 1.78 mm | - | 211 W/m² | - |
| 1777483125 | 10° C | 85% | 1012.1 hPa | 1.78 mm | - | 200 W/m² | - |
* Rain latest hour (hover to see other rain measurements)
** Current wind speed in m/s (hover to see current wind gust speed)